CAPE
0 0 0 0 0 0 0 0 0 0 0 0 0 0 0 0 0 0 0 0 11 0 0 258 155 141 122 63 17 14 8 297 360 782 908 971 1006 967 943 896 831 775 694 768 759 732 730 726 697 686 654 623 596 584 594 619 602 510 532 625 549 464 395
0 0 0 0 0 0 0 0 0 0 0 0 0 0 0 0 0 0 0 92 94 123 102 148 189 108 71 26 6 0 1 0 19 533 912 1043 1075 1089 1042 989 928 860 775 694 740 736 750 723 714 699 680 633 610 604 617 626 608 552 537 644 627 498 420
0 0 0 0 0 0 0 0 0 0 0 0 0 0 0 0 0 0 0 0 12 40 129 153 174 170 36 4 0 0 0 1 0 30 675 1042 1140 1165 1161 1128 1072 1000 901 804 730 723 740 739 717 699 677 652 622 614 622 624 597 499 490 646 660 536 423
0 0 0 0 0 0 0 0 0 0 0 0 0 0 0 0 0 0 0 0 1 0 0 134 160 192 114 0 0 0 0 0 0 0 128 932 1158 1219 1224 1210 1166 1104 996 880 795 767 749 712 728 708 676 644 628 618 622 618 574 405 432 608 721 580 413
0 0 0 0 0 0 0 0 0 0 0 0 0 0 0 0 0 0 0 0 0 0 49 63 124 180 146 43 0 0 0 0 0 0 4 463 1072 1214 1247 1240 1218 1176 1079 943 852 796 756 716 704 716 700 675 647 634 622 595 569 530 505 500 632 618 434
0 0 0 0 0 0 0 0 0 0 0 0 0 0 0 0 0 0 0 0 0 0 0 112 146 203 160 114 0 0 0 0 0 0 0 365 830 1119 1214 1247 1224 1202 1124 1008 886 804 757 725 680 646 678 666 664 631 608 574 551 526 541 530 510 584 493
0 0 0 0 0 0 0 0 0 0 0 0 0 0 0 0 0 0 0 0 0 0 0 0 120 243 210 166 118 0 137 222 286 311 263 524 658 936 1106 1164 1186 1132 1128 1024 911 820 776 738 692 650 624 621 628 620 596 572 556 552 551 551 541 552 566
0 0 0 0 0 0 0 0 0 0 0 0 0 0 0 0 0 0 0 0 0 0 0 3 65 273 319 244 187 0 127 282 372 440 462 583 688 824 967 1012 1070 1098 1068 1043 918 837 801 754 736 703 668 625 615 601 592 586 582 586 576 577 589 608 625
0 0 0 0 0 0 0 0 0 0 0 0 0 0 0 0 0 0 0 0 0 0 0 0 66 137 326 312 207 122 130 238 422 472 554 616 678 788 864 933 998 1002 960 928 910 850 782 744 724 688 666 666 647 696 623 614 622 619 616 602 624 644 672
0 0 0 0 0 0 0 0 0 0 0 0 0 0 0 0 0 0 0 0 0 0 0 9 17 26 196 347 228 153 140 203 294 473 579 658 709 774 840 914 927 963 996 960 899 815 702 670 638 611 663 671 698 789 796 736 696 664 657 650 666 682 703
0 0 0 0 0 0 0 0 0 0 0 0 0 0 0 0 0 0 0 0 0 0 0 0 0 0 40 334 384 291 192 223 300 388 542 697 752 767 802 883 906 968 1020 1034 1059 946 770 616 458 539 648 708 741 784 848 875 838 773 738 714 722 744 773
0 0 0 0 0 0 0 0 0 0 0 0 0 0 0 0 0 0 0 0 0 0 0 4 0 0 0 24 293 353 228 160 248 330 394 531 699 768 772 825 895 962 1000 1039 1096 1114 1007 877 667 499 570 742 772 753 822 891 940 917 877 838 812 822 840
0 0 0 0 0 0 0 0 0 0 0 0 0 0 0 0 0 0 0 0 0 0 0 0 0 0 0 1 150 306 306 183 168 294 423 570 706 748 791 785 831 935 1008 1045 1066 1110 1119 1081 991 852 836 866 839 861 851 863 958 1026 1004 962 939 922 942
0 0 0 0 0 0 0 0 0 0 0 0 0 0 0 0 0 0 0 0 0 0 0 0 0 0 0 0 0 161 275 254 110 337 493 538 633 723 799 850 836 894 973 1055 1140 1164 1173 1152 1109 1068 1012 941 984 908 978 842 946 1004 1094 1114 1082 1061 1068
0 0 0 0 0 0 0 0 0 0 0 0 0 0 0 0 0 0 0 0 0 0 5 2 0 0 0 0 0 0 182 259 168 204 344 426 531 636 719 824 856 864 954 1014 1131 1226 1293 1290 1223 1175 1124 1097 1198 1210 1187 1071 1080 1072 1091 1212 1204 1185 1148
0 0 0 0 2 0 0 0 0 0 0 0 0 0 0 0 0 0 0 0 0 0 0 0 0 0 0 0 0 0 39 152 196 214 266 320 424 507 634 734 848 883 926 1010 1112 1213 1274 1350 1387 1365 1299 1221 1168 1372 1369 1282 1139 1081 1042 1163 1292 1263 1254
0 0 0 0 0 0 3 8 10 0 0 0 0 0 0 0 0 0 0 0 0 0 0 0 0 0 0 0 0 0 0 70 165 177 230 245 236 371 526 634 750 827 895 959 1036 1119 1210 1278 1387 1460 1467 1445 1386 1400 1516 1392 1402 1345 1264 1212 1377 1341 1295
0 0 0 0 0 0 0 0 4 10 3 0 0 0 0 0 0 0 0 0 0 0 0 0 0 0 0 0 0 0 0 9 103 166 135 196 212 264 396 495 622 718 795 854 946 1022 1080 1153 1230 1373 1470 1553 1560 1506 1401 1575 1376 1464 1421 1378 1307 1306 1442
0 0 0 0 0 0 0 0 0 0 0 0 0 0 0 0 0 0 0 0 0 0 0 0 0 0 0 0 0 0 0 0 22 90 147 130 202 210 284 389 439 506 544 670 720 902 949 996 1052 1163 1341 1445 1555 1632 1658 1621 1569 1580 1448 1428 1763 1763 1704
0 0 0 0 0 0 0 0 0 0 0 0 0 0 0 0 0 0 0 0 0 0 0 0 0 0 0 0 0 0 0 0 0 7 40 105 104 113 234 250 312 341 383 558 664 747 751 733 909 1078 1212 1336 1426 1536 1610 1648 1642 1563 1540 1456 1657 1878 2024
0 0 0 0 0 0 0 0 0 0 0 0 0 0 0 0 0 0 0 0 0 0 0 0 0 0 0 0 0 0 0 0 0 0 0 0 10 97 169 60 146 134 260 356 315 366 450 328 493 818 978 1164 1360 1496 1542 1658 1748 1794 1708 1543 1559 1568 1779
0 0 0 0 0 0 1 0 0 0 0 0 0 0 0 0 0 0 0 0 0 0 0 0 0 0 0 0 0 0 0 0 0 0 0 0 0 0 1 2 0 0 0 61 69 158 265 276 262 477 824 1012 1230 1318 1534 1661 1728 1816 1886 1830 1756 1660 1616
0 0 0 0 0 0 0 0 0 0 0 0 0 0 0 0 0 0 0 0 0 0 0 0 0 0 0 0 0 0 0 0 0 0 0 0 0 0 0 2 0 0 0 0 0 0 0 83 25 0 217 766 944 1250 1402 1595 1711 1730 1737 1758 1744 1748 1710
0 0 0 0 0 0 0 0 0 0 0 0 0 0 1 0 0 0 0 0 0 0 0 0 0 0 0 0 0 0 0 0 0 0 0 0 0 0 0 0 0 1 0 0 0 0 0 0 0 0 0 183 539 1015 1468 1605 1720 1632 1642 1615 1610 1641 1667
0 3 5 6 0 2 0 0 0 0 0 0 14 0 0 0 0 0 0 0 0 0 0 0 0 0 0 0 0 0 0 0 0 0 0 0 0 0 0 0 0 1 0 0 0 0 0 0 0 0 0 63 424 598 1022 1358 1550 1620 1647 1576 1620 1630 1671
0 0 6 0 0 0 0 0 0 54 0 0 0 0 0 0 0 0 0 0 0 0 0 0 0 0 0 0 0 0 0 0 0 0 0 0 0 0 0 0 0 0 0 0 0 0 0 0 0 0 0 0 1 492 607 990 1341 1461 1585 1622 1610 1627 1650
4 2 2 6 1 0 0 0 0 0 0 0 0 0 0 0 0 0 0 0 0 0 0 0 0 0 0 0 0 0 0 0 0 0 0 0 0 0 0 0 0 0 0 0 0 0 0 0 0 0 0 0 0 88 369 570 818 910 1061 1253 1555 1664 1715
0 0 0 0 0 0 0 0 0 0 1 0 0 0 0 0 0 0 0 0 0 0 0 0 0 0 0 0 0 0 0 0 0 0 0 0 0 0 0 0 0 0 0 0 0 0 0 0 0 0 0 0 0 0 222 308 351 597 767 700 648 850 1467
0 0 0 0 0 0 0 0 0 0 0 0 0 0 0 0 0 0 0 0 0 0 0 0 0 0 0 0 0 0 0 0 0 0 0 0 0 0 0 0 0 0 0 0 0 0 0 0 0 0 0 0 0 0 72 34 179 248 310 493 557 462 588
0 0 0 0 0 0 0 0 0 0 0 0 0 0 0 0 0 0 0 0 0 0 0 0 0 0 0 0 0 0 0 0 0 0 0 0 0 0 0 0 0 0 0 0 0 0 0 0 0 0 0 0 0 0 0 0 0 0 0 194 242 268 378
0 0 0 0 0 0 0 0 0 0 0 0 0 0 0 0 0 0 0 0 0 0 0 0 0 0 0 0 0 0 0 0 0 0 0 0 0 0 0 0 0 0 0 0 0 0 0 0 0 0 0 0 0 0 0 0 0 0 3 2 104 130 300
0 0 0 0 0 0 0 0 0 0 0 0 0 0 0 0 0 0 0 0 0 0 0 0 0 0 0 0 0 0 0 0 0 0 0 0 0 0 0 0 0 0 0 0 0 0 0 0 0 0 0 0 0 0 0 0 0 86 4 3 1 5 124
0 0 0 0 0 0 0 0 0 0 0 0 0 0 0 0 0 0 0 0 0 0 0 0 0 0 0 0 0 0 0 0 0 0 0 0 0 0 0 0 0 0 0 0 0 0 0 0 0 0 0 0 0 0 0 0 0 0 2 3 2 0 40
0 0 0 0 0 0 0 0 0 0 0 0 0 0 0 0 0 0 0 0 0 0 0 0 0 0 0 0 0 0 0 0 0 0 0 0 0 0 0 0 0 0 0 0 0 0 0 0 0 0 0 0 0 0 0 0 0 0 2 3 2 1 0
0 0 0 0 0 0 0 0 0 0 0 0 0 0 0 0 0 0 0 0 0 0 0 0 0 0 0 0 0 0 0 0 0 0 0 0 0 0 0 0 0 0 0 0 0 0 0 0 0 0 0 0 0 0 0 0 0 0 0 3 3 1 1
0 0 0 0 0 0 0 0 0 0 0 0 0 0 0 0 0 0 0 0 0 0 0 0 0 0 0 0 0 0 0 0 0 0 0 0 0 0 0 0 0 0 0 0 0 0 0 0 0 0 0 0 0 0 0 0 0 14 1 2 2 52 241
0 0 0 0 0 0 0 0 0 0 0 0 0 0 0 0 0 0 0 0 0 0 0 0 0 0 0 0 0 0 0 0 0 0 0 0 4 4 0 0 0 0 0 0 0 0 0 0 0 0 0 0 0 0 1 13 1 1 2 110 199 305 414
Wind_Speed
nan nan nan nan nan nan nan nan nan nan nan nan nan nan nan nan nan nan nan nan nan nan nan 45 41 42 43 nan nan nan nan 30 20 12 7 2 0 3 3 4 6 6 3 4 5 5 5 6 5 5 5 6 9 7 5 4 6 8 7 6 7 7 7
nan nan nan nan nan nan nan nan nan nan nan nan nan nan nan nan nan nan nan nan nan 49 41 44 46 49 nan nan nan nan nan nan nan 14 13 9 5 2 3 3 2 3 1 2 2 2 4 6 7 5 4 5 7 8 7 6 5 6 8 9 9 10 9
nan nan nan nan nan nan nan nan nan nan nan nan nan nan nan nan nan nan nan nan nan nan 46 47 51 49 nan nan nan nan nan nan nan nan 15 13 11 9 7 5 4 2 2 3 4 4 4 4 5 5 4 5 6 6 6 8 6 5 9 12 12 13 11
nan nan nan nan nan nan nan nan nan nan nan nan nan nan nan nan nan nan nan nan nan nan nan 49 50 49 47 nan nan nan nan nan nan nan 22 13 10 10 6 6 4 2 3 4 5 4 5 4 5 6 6 6 7 7 6 5 4 6 9 10 12 11 11
nan nan nan nan nan nan nan nan nan nan nan nan nan nan nan nan nan nan nan nan nan nan nan nan 50 48 47 nan nan nan nan nan nan nan nan 19 13 10 8 5 5 3 5 5 3 4 6 8 9 9 7 5 6 6 6 6 7 5 4 8 11 11 12
nan nan nan nan nan nan nan nan nan nan nan nan nan nan nan nan nan nan nan nan nan nan nan 44 46 44 44 44 nan nan nan nan nan nan nan 37 16 15 12 9 8 6 7 8 6 6 10 11 11 9 8 7 6 5 4 5 5 4 2 6 10 12 13
nan nan nan nan nan nan nan nan nan nan nan nan nan nan nan nan nan nan nan nan nan nan nan nan 41 40 43 43 44 nan 45 46 48 48 48 48 40 28 26 25 20 12 8 10 10 8 9 10 10 9 9 7 5 4 4 4 5 4 3 5 10 14 15
nan nan nan nan nan nan nan nan nan nan nan nan nan nan nan nan nan nan nan nan nan nan nan nan nan 39 42 46 46 nan 46 47 49 50 52 52 48 48 48 40 35 28 25 22 18 14 12 12 12 10 9 8 7 6 5 3 4 5 5 6 10 14 16
nan nan nan nan nan nan nan nan nan nan nan nan nan nan nan nan nan nan nan nan nan nan nan nan nan 46 49 51 50 48 49 48 47 48 50 50 51 53 53 52 52 51 43 33 25 21 16 13 13 13 11 10 9 7 6 4 4 6 8 7 7 11 14
nan nan nan nan nan nan nan nan nan nan nan nan nan nan nan nan nan nan nan nan nan nan nan nan nan nan 50 52 51 50 48 48 47 49 49 50 52 51 53 55 56 53 50 51 51 45 35 27 22 18 15 13 11 10 8 7 8 9 8 9 8 8 12
nan nan nan nan nan nan nan nan nan nan nan nan nan nan nan nan nan nan nan nan nan nan nan nan nan nan nan 58 58 55 53 51 49 47 48 49 49 50 52 51 52 55 58 56 55 54 51 46 37 31 27 22 18 16 13 11 11 11 10 10 8 7 8
nan nan nan nan nan nan nan nan nan nan nan nan nan nan nan nan nan nan nan nan nan nan nan nan nan nan nan nan 56 56 53 52 51 49 50 52 53 53 53 54 56 56 56 57 57 57 56 52 51 47 37 30 28 25 21 18 17 15 15 12 10 8 8
nan nan nan nan nan nan nan nan nan nan nan nan nan nan nan nan nan nan nan nan nan nan nan nan nan nan nan nan 55 53 52 50 53 56 57 55 55 54 55 54 54 55 57 56 57 58 56 56 55 51 49 44 34 27 26 24 23 19 19 16 13 11 9
nan nan nan nan nan nan nan nan nan nan nan nan nan nan nan nan nan nan nan nan nan nan nan nan nan nan nan nan nan 50 54 56 57 57 57 56 55 55 54 53 52 52 53 55 57 57 57 57 56 55 52 48 45 37 27 27 24 24 23 20 17 14 11
nan nan nan nan nan nan nan nan nan nan nan nan nan nan nan nan nan nan nan nan nan nan nan nan nan nan nan nan nan nan 52 55 60 60 58 57 56 55 53 53 53 51 49 50 54 57 57 56 54 54 51 50 48 47 41 30 27 25 23 20 18 15 12
nan nan nan nan nan nan nan nan nan nan nan nan nan nan nan nan nan nan nan nan nan nan nan nan nan nan nan nan nan nan nan 56 60 62 61 59 58 58 56 54 54 54 52 51 51 53 54 55 54 53 54 53 52 50 48 44 30 27 23 20 17 14 13
nan nan nan nan nan nan nan nan nan nan nan nan nan nan nan nan nan nan nan nan nan nan nan nan nan nan nan nan nan nan nan nan 60 62 63 61 60 59 58 56 55 54 52 51 51 51 51 54 55 54 53 53 53 52 51 46 44 30 24 21 18 17 17
nan nan nan nan nan nan nan nan nan nan nan nan nan nan nan nan nan nan nan nan nan nan nan nan nan nan nan nan nan nan nan nan 63 63 63 64 62 61 60 56 55 54 52 51 51 50 50 52 54 54 53 53 51 52 50 49 46 43 35 27 23 20 19
nan nan nan nan nan nan nan nan nan nan nan nan nan nan nan nan nan nan nan nan nan nan nan nan nan nan nan nan nan nan nan nan nan nan 65 66 66 64 61 59 58 57 55 54 53 53 53 53 55 58 58 57 55 54 53 51 49 47 43 39 33 26 22
nan nan nan nan nan nan nan nan nan nan nan nan nan nan nan nan nan nan nan nan nan nan nan nan nan nan nan nan nan nan nan nan nan nan nan 67 69 67 63 60 59 57 59 59 56 53 51 52 53 56 58 59 57 55 53 51 51 49 48 42 38 36 29
nan nan nan nan nan nan nan nan nan nan nan nan nan nan nan nan nan nan nan nan nan nan nan nan nan nan nan nan nan nan nan nan nan nan nan nan nan nan 66 nan 61 58 59 60 59 54 51 51 53 54 58 59 58 57 55 52 51 51 49 47 44 40 37
nan nan nan nan nan nan nan nan nan nan nan nan nan nan nan nan nan nan nan nan nan nan nan nan nan nan nan nan nan nan nan nan nan nan nan nan nan nan nan nan nan nan nan nan nan 58 53 53 54 54 55 58 59 58 56 53 53 51 50 49 48 46 42
nan nan nan nan nan nan nan nan nan nan nan nan nan nan nan nan nan nan nan nan nan nan nan nan nan nan nan nan nan nan nan nan nan nan nan nan nan nan nan nan nan nan nan nan nan nan nan nan nan nan 57 57 55 54 55 54 52 50 49 50 50 49 48
nan nan nan nan nan nan nan nan nan nan nan nan nan nan nan nan nan nan nan nan nan nan nan nan nan nan nan nan nan nan nan nan nan nan nan nan nan nan nan nan nan nan nan nan nan nan nan nan nan nan nan 55 52 51 52 54 54 52 49 49 48 46 46
nan nan nan nan nan nan nan nan nan nan nan nan nan nan nan nan nan nan nan nan nan nan nan nan nan nan nan nan nan nan nan nan nan nan nan nan nan nan nan nan nan nan nan nan nan nan nan nan nan nan nan nan 54 52 51 50 52 52 50 48 47 46 44
nan nan nan nan nan nan nan nan nan nan nan nan nan nan nan nan nan nan nan nan nan nan nan nan nan nan nan nan nan nan nan nan nan nan nan nan nan nan nan nan nan nan nan nan nan nan nan nan nan nan nan nan nan 55 54 50 49 50 49 47 45 44 43
nan nan nan nan nan nan nan nan nan nan nan nan nan nan nan nan nan nan nan nan nan nan nan nan nan nan nan nan nan nan nan nan nan nan nan nan nan nan nan nan nan nan nan nan nan nan nan nan nan nan nan nan nan nan 52 52 51 50 48 46 44 43 41
nan nan nan nan nan nan nan nan nan nan nan nan nan nan nan nan nan nan nan nan nan nan nan nan nan nan nan nan nan nan nan nan nan nan nan nan nan nan nan nan nan nan nan nan nan nan nan nan nan nan nan nan nan nan 49 51 52 50 47 45 43 42 41
nan nan nan nan nan nan nan nan nan nan nan nan nan nan nan nan nan nan nan nan nan nan nan nan nan nan nan nan nan nan nan nan nan nan nan nan nan nan nan nan nan nan nan nan nan nan nan nan nan nan nan nan nan nan nan nan 51 50 48 44 42 42 42
nan nan nan nan nan nan nan nan nan nan nan nan nan nan nan nan nan nan nan nan nan nan nan nan nan nan nan nan nan nan nan nan nan nan nan nan nan nan nan nan nan nan nan nan nan nan nan nan nan nan nan nan nan nan nan nan nan nan nan 46 44 44 45
nan nan nan nan nan nan nan nan nan nan nan nan nan nan nan nan nan nan nan nan nan nan nan nan nan nan nan nan nan nan nan nan nan nan nan nan nan nan nan nan nan nan nan nan nan nan nan nan nan nan nan nan nan nan nan nan nan nan nan nan 45 45 46
nan nan nan nan nan nan nan nan nan nan nan nan nan nan nan nan nan nan nan nan nan nan nan nan nan nan nan nan nan nan nan nan nan nan nan nan nan nan nan nan nan nan nan nan nan nan nan nan nan nan nan nan nan nan nan nan nan nan nan nan nan nan 46
nan nan nan nan nan nan nan nan nan nan nan nan nan nan nan nan nan nan nan nan nan nan nan nan nan nan nan nan nan nan nan nan nan nan nan nan nan nan nan nan nan nan nan nan nan nan nan nan nan nan nan nan nan nan nan nan nan nan nan nan nan nan nan
nan nan nan nan nan nan nan nan nan nan nan nan nan nan nan nan nan nan nan nan nan nan nan nan nan nan nan nan nan nan nan nan nan nan nan nan nan nan nan nan nan nan nan nan nan nan nan nan nan nan nan nan nan nan nan nan nan nan nan nan nan nan nan
nan nan nan nan nan nan nan nan nan nan nan nan nan nan nan nan nan nan nan nan nan nan nan nan nan nan nan nan nan nan nan nan nan nan nan nan nan nan nan nan nan nan nan nan nan nan nan nan nan nan nan nan nan nan nan nan nan nan nan nan nan nan nan
nan nan nan nan nan nan nan nan nan nan nan nan nan nan nan nan nan nan nan nan nan nan nan nan nan nan nan nan nan nan nan nan nan nan nan nan nan nan nan nan nan nan nan nan nan nan nan nan nan nan nan nan nan nan nan nan nan nan nan nan nan nan 47
nan nan nan nan nan nan nan nan nan nan nan nan nan nan nan nan nan nan nan nan nan nan nan nan nan nan nan nan nan nan nan nan nan nan nan nan nan nan nan nan nan nan nan nan nan nan nan nan nan nan nan nan nan nan nan nan nan nan nan 44 45 46 46
Wind_Direction
nan nan nan nan nan nan nan nan nan nan nan nan nan nan nan nan nan nan nan nan nan nan nan 217 207 208 208 nan nan nan nan 191 202 188 191 205 349 334 339 45 48 30 55 68 26 351 328 319 318 349 346 325 325 314 301 272 225 217 217 201 185 190 211
nan nan nan nan nan nan nan nan nan nan nan nan nan nan nan nan nan nan nan nan nan 218 220 213 210 210 nan nan nan nan nan nan nan 177 170 160 130 90 13 16 21 12 57 42 348 326 337 329 328 335 333 298 304 312 321 313 256 230 217 213 200 191 194
nan nan nan nan nan nan nan nan nan nan nan nan nan nan nan nan nan nan nan nan nan nan 216 215 214 214 nan nan nan nan nan nan nan nan 165 160 150 160 184 208 237 291 5 339 321 323 327 319 311 306 279 270 284 304 326 333 322 253 232 217 208 197 191
nan nan nan nan nan nan nan nan nan nan nan nan nan nan nan nan nan nan nan nan nan nan nan 215 217 217 216 nan nan nan nan nan nan nan 172 166 164 162 166 198 229 290 319 308 315 296 286 289 275 265 270 266 303 321 328 336 316 259 237 231 224 210 200
nan nan nan nan nan nan nan nan nan nan nan nan nan nan nan nan nan nan nan nan nan nan nan nan 215 216 215 nan nan nan nan nan nan nan nan 163 167 161 158 176 206 240 255 260 296 270 241 232 234 242 249 272 291 303 330 332 325 305 258 238 234 222 214
nan nan nan nan nan nan nan nan nan nan nan nan nan nan nan nan nan nan nan nan nan nan nan 210 214 214 212 209 nan nan nan nan nan nan nan 174 167 168 157 165 185 210 239 243 251 252 231 229 235 252 252 247 261 292 321 322 315 315 282 225 224 225 220
nan nan nan nan nan nan nan nan nan nan nan nan nan nan nan nan nan nan nan nan nan nan nan nan 212 210 206 201 200 nan 199 197 195 191 187 186 184 183 176 175 178 188 219 239 247 255 243 238 237 251 252 254 264 284 296 299 313 311 259 216 214 219 220
nan nan nan nan nan nan nan nan nan nan nan nan nan nan nan nan nan nan nan nan nan nan nan nan nan 206 202 199 199 nan 200 200 199 197 193 191 192 193 192 189 187 187 193 204 211 214 218 222 226 236 242 244 245 250 261 265 315 300 270 226 212 214 215
nan nan nan nan nan nan nan nan nan nan nan nan nan nan nan nan nan nan nan nan nan nan nan nan nan 203 203 200 200 202 203 201 200 201 199 195 194 199 198 195 194 195 196 197 192 188 190 203 212 215 223 230 237 245 245 244 250 274 273 253 230 213 213
nan nan nan nan nan nan nan nan nan nan nan nan nan nan nan nan nan nan nan nan nan nan nan nan nan nan 204 203 201 204 207 202 201 202 202 201 198 199 201 199 198 199 199 198 195 189 185 184 189 196 203 212 223 229 234 234 232 247 263 261 251 228 216
nan nan nan nan nan nan nan nan nan nan nan nan nan nan nan nan nan nan nan nan nan nan nan nan nan nan nan 203 203 203 201 200 200 203 206 205 202 201 202 201 201 203 202 199 196 193 190 188 187 186 187 191 202 210 218 222 223 233 242 251 255 244 222
nan nan nan nan nan nan nan nan nan nan nan nan nan nan nan nan nan nan nan nan nan nan nan nan nan nan nan nan 205 203 202 201 200 202 207 206 205 202 202 202 203 205 203 201 198 195 194 193 191 190 190 189 193 200 202 208 214 217 221 229 241 239 226
nan nan nan nan nan nan nan nan nan nan nan nan nan nan nan nan nan nan nan nan nan nan nan nan nan nan nan nan 205 204 205 204 203 205 207 206 205 203 203 202 204 206 205 203 201 198 196 196 196 195 195 194 198 203 200 205 210 211 213 217 219 223 213
nan nan nan nan nan nan nan nan nan nan nan nan nan nan nan nan nan nan nan nan nan nan nan nan nan nan nan nan nan 206 208 205 204 206 207 207 205 205 204 203 204 206 206 206 206 203 201 199 199 198 198 198 199 197 207 212 214 214 217 211 211 211 201
nan nan nan nan nan nan nan nan nan nan nan nan nan nan nan nan nan nan nan nan nan nan nan nan nan nan nan nan nan nan 206 205 205 207 207 207 206 205 205 205 204 205 207 210 210 209 206 203 202 201 199 199 199 200 201 213 220 222 224 217 211 207 200
nan nan nan nan nan nan nan nan nan nan nan nan nan nan nan nan nan nan nan nan nan nan nan nan nan nan nan nan nan nan nan 207 208 208 207 207 207 206 205 204 205 206 209 212 213 213 210 206 204 204 202 200 200 199 200 199 210 226 227 225 214 209 204
nan nan nan nan nan nan nan nan nan nan nan nan nan nan nan nan nan nan nan nan nan nan nan nan nan nan nan nan nan nan nan nan 210 210 208 208 209 207 206 206 207 209 211 212 212 212 212 209 206 204 203 202 200 200 198 199 197 210 227 225 220 213 211
nan nan nan nan nan nan nan nan nan nan nan nan nan nan nan nan nan nan nan nan nan nan nan nan nan nan nan nan nan nan nan nan 210 210 209 209 210 209 208 208 210 210 211 212 210 209 209 207 207 204 204 203 202 200 201 199 200 201 207 215 218 214 219
nan nan nan nan nan nan nan nan nan nan nan nan nan nan nan nan nan nan nan nan nan nan nan nan nan nan nan nan nan nan nan nan nan nan 208 209 211 209 208 208 211 210 209 208 206 206 206 204 204 205 203 202 201 202 201 201 202 201 204 207 208 212 217
nan nan nan nan nan nan nan nan nan nan nan nan nan nan nan nan nan nan nan nan nan nan nan nan nan nan nan nan nan nan nan nan nan nan nan 207 210 210 207 210 213 212 209 208 207 206 207 206 206 207 205 201 201 201 201 203 202 203 203 206 207 206 208
nan nan nan nan nan nan nan nan nan nan nan nan nan nan nan nan nan nan nan nan nan nan nan nan nan nan nan nan nan nan nan nan nan nan nan nan nan nan 208 nan 212 212 210 209 209 208 207 206 208 210 207 204 203 201 202 204 205 204 203 204 205 207 206
nan nan nan nan nan nan nan nan nan nan nan nan nan nan nan nan nan nan nan nan nan nan nan nan nan nan nan nan nan nan nan nan nan nan nan nan nan nan nan nan nan nan nan nan nan 209 205 203 206 210 209 207 205 203 203 204 206 207 206 205 204 204 206
nan nan nan nan nan nan nan nan nan nan nan nan nan nan nan nan nan nan nan nan nan nan nan nan nan nan nan nan nan nan nan nan nan nan nan nan nan nan nan nan nan nan nan nan nan nan nan nan nan nan 207 208 207 205 206 206 207 208 209 207 205 202 202
nan nan nan nan nan nan nan nan nan nan nan nan nan nan nan nan nan nan nan nan nan nan nan nan nan nan nan nan nan nan nan nan nan nan nan nan nan nan nan nan nan nan nan nan nan nan nan nan nan nan nan 208 206 206 208 210 209 209 210 209 206 203 202
nan nan nan nan nan nan nan nan nan nan nan nan nan nan nan nan nan nan nan nan nan nan nan nan nan nan nan nan nan nan nan nan nan nan nan nan nan nan nan nan nan nan nan nan nan nan nan nan nan nan nan nan 206 205 207 211 211 210 211 210 208 206 206
nan nan nan nan nan nan nan nan nan nan nan nan nan nan nan nan nan nan nan nan nan nan nan nan nan nan nan nan nan nan nan nan nan nan nan nan nan nan nan nan nan nan nan nan nan nan nan nan nan nan nan nan nan 204 205 208 209 210 211 212 212 211 210
nan nan nan nan nan nan nan nan nan nan nan nan nan nan nan nan nan nan nan nan nan nan nan nan nan nan nan nan nan nan nan nan nan nan nan nan nan nan nan nan nan nan nan nan nan nan nan nan nan nan nan nan nan nan 205 206 207 207 209 212 213 215 214
nan nan nan nan nan nan nan nan nan nan nan nan nan nan nan nan nan nan nan nan nan nan nan nan nan nan nan nan nan nan nan nan nan nan nan nan nan nan nan nan nan nan nan nan nan nan nan nan nan nan nan nan nan nan 203 207 208 208 209 210 212 214 216
nan nan nan nan nan nan nan nan nan nan nan nan nan nan nan nan nan nan nan nan nan nan nan nan nan nan nan nan nan nan nan nan nan nan nan nan nan nan nan nan nan nan nan nan nan nan nan nan nan nan nan nan nan nan nan nan 208 209 211 213 214 214 216
nan nan nan nan nan nan nan nan nan nan nan nan nan nan nan nan nan nan nan nan nan nan nan nan nan nan nan nan nan nan nan nan nan nan nan nan nan nan nan nan nan nan nan nan nan nan nan nan nan nan nan nan nan nan nan nan nan nan nan 215 215 213 213
nan nan nan nan nan nan nan nan nan nan nan nan nan nan nan nan nan nan nan nan nan nan nan nan nan nan nan nan nan nan nan nan nan nan nan nan nan nan nan nan nan nan nan nan nan nan nan nan nan nan nan nan nan nan nan nan nan nan nan nan 214 214 212
nan nan nan nan nan nan nan nan nan nan nan nan nan nan nan nan nan nan nan nan nan nan nan nan nan nan nan nan nan nan nan nan nan nan nan nan nan nan nan nan nan nan nan nan nan nan nan nan nan nan nan nan nan nan nan nan nan nan nan nan nan nan 210
nan nan nan nan nan nan nan nan nan nan nan nan nan nan nan nan nan nan nan nan nan nan nan nan nan nan nan nan nan nan nan nan nan nan nan nan nan nan nan nan nan nan nan nan nan nan nan nan nan nan nan nan nan nan nan nan nan nan nan nan nan nan nan
nan nan nan nan nan nan nan nan nan nan nan nan nan nan nan nan nan nan nan nan nan nan nan nan nan nan nan nan nan nan nan nan nan nan nan nan nan nan nan nan nan nan nan nan nan nan nan nan nan nan nan nan nan nan nan nan nan nan nan nan nan nan nan
nan nan nan nan nan nan nan nan nan nan nan nan nan nan nan nan nan nan nan nan nan nan nan nan nan nan nan nan nan nan nan nan nan nan nan nan nan nan nan nan nan nan nan nan nan nan nan nan nan nan nan nan nan nan nan nan nan nan nan nan nan nan nan
nan nan nan nan nan nan nan nan nan nan nan nan nan nan nan nan nan nan nan nan nan nan nan nan nan nan nan nan nan nan nan nan nan nan nan nan nan nan nan nan nan nan nan nan nan nan nan nan nan nan nan nan nan nan nan nan nan nan nan nan nan nan 215
nan nan nan nan nan nan nan nan nan nan nan nan nan nan nan nan nan nan nan nan nan nan nan nan nan nan nan nan nan nan nan nan nan nan nan nan nan nan nan nan nan nan nan nan nan nan nan nan nan nan nan nan nan nan nan nan nan nan nan 216 213 213 216